This demonstration page uses our WeatherBlox Daily Observations layout. Learn more.

Left ArrowRight Arrow

39.92423, -83.80882

Hourly Observations for February 17, 2021

Temp ( °F °C ) Dew Point ( °F °C ) Humidity (%) Winds ( mph kmh ) Pressure ( in mb ) Visibility ( mi km ) Precip ( " mm )
12:56 am 00:56 Clear 0 -17.8 -2 -18.9 91 91 Calm 30.34 1027 10 16 0.00 0.00
1:56 am 01:56 Clear -2 -18.9 -5 -20.6 87 87 Calm 30.35 1028 10 16 0.00 0.00
2:56 am 02:56 Clear -1 -18.3 -4 -20 87 87 SW 3 6 30.39 1029 10 16 0.00 0.00
3:56 am 03:56 Clear -3 -19.4 -6 -21.1 86 86 Calm 30.39 1029 10 16 0.00 0.00
4:56 am 04:56 Clear -4 -20 -6 -21.1 91 91 Calm 30.41 1030 10 16 0.00 0.00
5:56 am 05:56 Clear -5 -20.6 -8 -22.2 87 87 Calm 30.42 1030 10 16 0.00 0.00
6:56 am 06:56 Clear -2 -18.9 -5 -20.6 87 87 Calm 30.43 1031 10 16 0.00 0.00
7:56 am 07:56 Sunny -8 -22.2 -11 -23.9 86 86 ENE 5 7 30.42 1030 10 16 0.00 0.00
8:56 am 08:56 Partly Cloudy 0 -17.8 -2 -18.9 91 91 ENE 6 9 30.44 1031 10 16 0.00 0.00
9:56 am 09:56 Sunny 7 -13.9 6 -14.4 96 96 E 3 6 30.45 1031 10 16 0.00 0.00
10:56 am 10:56 Sunny 12 -11.1 11 -11.7 95 95 E 5 7 30.46 1032 10 16 0.00 0.00
11:56 am 11:56 Sunny 17 -8.3 11 -11.7 77 77 SE 5 7 30.49 1033 10 16 0.00 0.00
12:56 pm 12:56 Sunny 18 -7.8 11 -11.7 74 74 E 7 11 30.43 1031 10 16 0.00 0.00
1:56 pm 13:56 Cloudy 18 -7.8 11 -11.7 74 74 E 7 11 30.42 1030 10 16 0.00 0.00
2:56 pm 14:56 Cloudy 18 -7.8 11 -11.7 74 74 E 8 13 30.39 1029 10 16 0.00 0.00
3:56 pm 15:56 Cloudy 19 -7.2 11 -11.7 71 71 E 10 17 30.35 1028 10 16 0.00 0.00
4:56 pm 16:56 Cloudy 19 -7.2 12 -11.1 74 74 E 7 11 30.36 1028 10 16 0.00 0.00
5:56 pm 17:56 Cloudy 19 -7.2 12 -11.1 74 74 E 7 11 30.37 1029 10 16 0.00 0.00
6:56 pm 18:56 Cloudy 19 -7.2 13 -10.6 77 77 NE 9 15 30.36 1028 10 16 0.00 0.00
7:56 pm 19:56 Mostly Cloudy 19 -7.2 13 -10.6 77 77 NE 10 17 30.37 1028 10 16 0.00 0.00
8:56 pm 20:56 Partly Cloudy 19 -7.2 12 -11.1 74 74 NNE 9 15 30.37 1028 10 16 0.00 0.00
9:56 pm 21:56 Cloudy 19 -7.2 13 -10.6 77 77 NE 12 19 30.35 1028 10 16 0.00 0.00
10:56 pm 22:56 Cloudy 19 -7.2 13 -10.6 77 77 NE 7 11 30.35 1028 10 16 0.00 0.00
11:56 pm 23:56 Cloudy with Light Snow 18 -7.8 15 -9.4 88 88 E 6 9 30.35 1028 5 8 0.00 0.00

Powered by AerisWeather